User: anonymous   Login
Location: Ostrava
(49.8330°N, 18.2830°E)
Time: 08:01:43
(UTC+01:00)
Language:

NOAA 19 - Orbit

View from above orbital plane
View from above orbital plane
View from above satellite
View from above satellite

Ground track
Ground track

The orbit data is extracted from the following two-line orbital elements,

1 33591U 09005A   17346.88206320 +.00000077 +00000-0 +66842-4 0  9999
2 33591 099.1179 316.4616 0014678 127.5816 232.6690 14.12236727455616
Epoch (UTC): 12 December 2017 21:10:10
Eccentricity: 0.0014678
inclination: 99.1179°
perigee height: 841 km
apogee height: 862 km
right ascension of ascending node: 316.4616°
argument of perigee: 127.5816°
revolutions per day: 14.12236727
mean anomaly at epoch: 232.6690°
orbit number at epoch: 45561

The dashed part of the orbit path shows where the satellite is in the earth's shadow,  

DLR